GLO1144 SBGR-SBFL

Flight info

Callsign GLO1144
Flight time 0h 54m
Altitude 36000
Route MADNI UZ92 PUBIS
Aircraft B738/M-SDE2E3FGHIRWXY/LB1

Departure

Time 2026-04-30 14:04
Airport São Paulo/Guarulhos–Governor André Franco Montoro International Airport (SBGR)

Arrival

Time 2026-04-30 14:58
Airport Hercílio Luz International Airport (SBFL)
Time Latitude Longitude Altitude Speed Heading
2026-04-30 13:38 -23.42889 -46.48222 2447 ft 0 kts 264°
2026-04-30 13:52 -23.42889 -46.48221 2447 ft 0 kts 264°
2026-04-30 13:53 -23.42888 -46.48220 2447 ft 1 kts 264°
2026-04-30 13:53 -23.42888 -46.48209 2447 ft 1 kts 264°
2026-04-30 13:53 -23.42885 -46.48194 2447 ft 2 kts 248°
2026-04-30 13:53 -23.42878 -46.48179 2447 ft 2 kts 234°
2026-04-30 13:54 -23.42868 -46.48167 2447 ft 2 kts 219°
2026-04-30 13:54 -23.42855 -46.48158 2448 ft 2 kts 204°
2026-04-30 13:54 -23.42841 -46.48153 2448 ft 2 kts 189°
2026-04-30 13:54 -23.42828 -46.48152 2448 ft 0 kts 176°
2026-04-30 13:55 -23.42822 -46.48153 2449 ft 0 kts 174°
2026-04-30 13:57 -23.42844 -46.48151 2448 ft 7 kts 175°
2026-04-30 13:57 -23.42915 -46.48144 2446 ft 10 kts 175°
2026-04-30 13:58 -23.42987 -46.48137 2446 ft 10 kts 174°
2026-04-30 13:58 -23.43102 -46.48134 2446 ft 6 kts 214°
2026-04-30 13:58 -23.43126 -46.48177 2446 ft 8 kts 250°
2026-04-30 13:59 -23.43144 -46.48242 2446 ft 8 kts 253°
2026-04-30 13:59 -23.43162 -46.48307 2446 ft 9 kts 253°
2026-04-30 13:59 -23.43188 -46.48372 2446 ft 9 kts 225°
2026-04-30 13:59 -23.43248 -46.48380 2447 ft 8 kts 166°
2026-04-30 14:00 -23.43297 -46.48365 2449 ft 6 kts 164°
2026-04-30 14:00 -23.43301 -46.48364 2449 ft 0 kts 164°
2026-04-30 14:01 -23.43311 -46.48361 2449 ft 6 kts 164°
2026-04-30 14:01 -23.43392 -46.48331 2452 ft 15 kts 140°
2026-04-30 14:01 -23.43403 -46.48244 2453 ft 1 kts 73°
2026-04-30 14:02 -23.43403 -46.48241 2453 ft 2 kts 73°
2026-04-30 14:03 -23.43350 -46.48050 2452 ft 58 kts 73°
2026-04-30 14:03 -23.43180 -46.47412 2453 ft 116 kts 73°
2026-04-30 14:03 -23.42900 -46.46383 2451 ft 165 kts 74°
2026-04-30 14:03 -23.42558 -46.45153 2950 ft 167 kts 72°
2026-04-30 14:04 -23.42191 -46.43924 3418 ft 176 kts 72°
2026-04-30 14:04 -23.41809 -46.42655 3919 ft 184 kts 72°
2026-04-30 14:04 -23.41402 -46.41282 4277 ft 198 kts 72°
2026-04-30 14:04 -23.40973 -46.39801 4657 ft 211 kts 72°
2026-04-30 14:05 -23.40521 -46.38223 4924 ft 232 kts 72°
2026-04-30 14:05 -23.40145 -46.36449 5324 ft 246 kts 84°
2026-04-30 14:05 -23.40348 -46.34551 5684 ft 262 kts 108°
2026-04-30 14:05 -23.41010 -46.32669 6249 ft 271 kts 112°
2026-04-30 14:06 -23.41721 -46.30734 6704 ft 285 kts 111°
2026-04-30 14:06 -23.43705 -46.26984 8105 ft 289 kts 140°
2026-04-30 14:07 -23.47371 -46.25405 9068 ft 288 kts 177°
2026-04-30 14:07 -23.49375 -46.25451 9160 ft 286 kts 189°
2026-04-30 14:07 -23.51331 -46.25825 9169 ft 283 kts 194°
2026-04-30 14:08 -23.54703 -46.27875 9167 ft 279 kts 226°
2026-04-30 14:08 -23.55944 -46.29487 9168 ft 278 kts 237°
2026-04-30 14:08 -23.57191 -46.33459 9168 ft 280 kts 258°
2026-04-30 14:09 -23.57557 -46.35531 9168 ft 278 kts 258°
2026-04-30 14:09 -23.57932 -46.37595 9168 ft 278 kts 258°
2026-04-30 14:09 -23.58810 -46.41716 9202 ft 286 kts 247°
2026-04-30 14:10 -23.60054 -46.43396 10053 ft 285 kts 217°
2026-04-30 14:10 -23.61782 -46.44432 10699 ft 293 kts 206°
2026-04-30 14:10 -23.63727 -46.45337 11207 ft 305 kts 204°
2026-04-30 14:10 -23.65659 -46.46271 11940 ft 308 kts 206°
2026-04-30 14:11 -23.67615 -46.47306 12626 ft 312 kts 208°
2026-04-30 14:11 -23.69558 -46.48396 13347 ft 315 kts 209°
2026-04-30 14:11 -23.71498 -46.49510 14039 ft 319 kts 210°
2026-04-30 14:11 -23.73469 -46.50645 14737 ft 322 kts 209°
2026-04-30 14:12 -23.75452 -46.51785 15441 ft 325 kts 210°
2026-04-30 14:12 -23.77490 -46.52951 16107 ft 330 kts 209°
2026-04-30 14:12 -23.79512 -46.54107 16763 ft 333 kts 210°
2026-04-30 14:12 -23.80895 -46.54898 17226 ft 335 kts 210°
2026-04-30 14:13 -23.83673 -46.56485 18082 ft 339 kts 210°
2026-04-30 14:13 -23.85762 -46.57680 18705 ft 343 kts 210°
2026-04-30 14:13 -23.87901 -46.58904 19329 ft 347 kts 211°
2026-04-30 14:13 -23.90039 -46.60128 19955 ft 349 kts 211°
2026-04-30 14:14 -23.92191 -46.61360 20581 ft 352 kts 212°
2026-04-30 14:14 -23.94357 -46.62601 21164 ft 355 kts 212°
2026-04-30 14:14 -23.96532 -46.63848 21829 ft 354 kts 212°
2026-04-30 14:14 -23.98749 -46.65120 22407 ft 357 kts 213°
2026-04-30 14:15 -24.00947 -46.66381 22924 ft 361 kts 213°
2026-04-30 14:15 -24.03180 -46.67664 23429 ft 364 kts 213°
2026-04-30 14:15 -24.05422 -46.68952 23934 ft 368 kts 213°
2026-04-30 14:15 -24.07700 -46.70260 24468 ft 370 kts 213°
2026-04-30 14:16 -24.09980 -46.71570 24925 ft 374 kts 213°
2026-04-30 14:16 -24.12307 -46.72910 25386 ft 378 kts 214°
2026-04-30 14:16 -24.14642 -46.74252 25890 ft 379 kts 214°
2026-04-30 14:16 -24.17001 -46.75609 26349 ft 382 kts 214°
2026-04-30 14:17 -24.19348 -46.76961 26743 ft 386 kts 214°
2026-04-30 14:17 -24.21740 -46.78339 27218 ft 388 kts 214°
2026-04-30 14:17 -24.24125 -46.79715 27614 ft 391 kts 215°
2026-04-30 14:17 -24.26556 -46.81115 28045 ft 393 kts 214°
2026-04-30 14:18 -24.28975 -46.82510 28435 ft 396 kts 215°
2026-04-30 14:18 -24.31412 -46.83913 28861 ft 397 kts 215°
2026-04-30 14:18 -24.36332 -46.86752 29664 ft 401 kts 215°
2026-04-30 14:19 -24.41271 -46.89600 30562 ft 402 kts 215°
2026-04-30 14:19 -24.43759 -46.91037 30912 ft 404 kts 215°
2026-04-30 14:19 -24.46264 -46.92487 31300 ft 405 kts 215°
2026-04-30 14:20 -24.48761 -46.93934 31650 ft 407 kts 215°
2026-04-30 14:20 -24.51247 -46.95375 32042 ft 408 kts 215°
2026-04-30 14:20 -24.56294 -46.98298 32810 ft 408 kts 215°
2026-04-30 14:21 -24.58786 -46.99746 33117 ft 411 kts 215°
2026-04-30 14:21 -24.61321 -47.01228 33497 ft 411 kts 216°
2026-04-30 14:21 -24.66187 -47.04491 34151 ft 411 kts 220°
2026-04-30 14:22 -24.68575 -47.06226 34592 ft 410 kts 220°
2026-04-30 14:22 -24.73379 -47.09731 35228 ft 414 kts 220°
2026-04-30 14:22 -24.75810 -47.11492 35583 ft 414 kts 220°
2026-04-30 14:23 -24.80625 -47.14947 36062 ft 414 kts 220°
2026-04-30 14:23 -24.85441 -47.18378 36056 ft 407 kts 220°
2026-04-30 14:24 -24.92602 -47.23480 36050 ft 407 kts 220°
2026-04-30 14:25 -25.02114 -47.30262 36050 ft 408 kts 220°
2026-04-30 14:26 -25.09279 -47.35379 36053 ft 408 kts 220°
2026-04-30 14:27 -25.16462 -47.40518 36054 ft 408 kts 220°
2026-04-30 14:27 -25.21245 -47.43940 36056 ft 407 kts 220°
2026-04-30 14:28 -25.28362 -47.49039 36056 ft 407 kts 220°
2026-04-30 14:28 -25.33143 -47.52472 36057 ft 407 kts 220°
2026-04-30 14:29 -25.41856 -47.58741 36058 ft 408 kts 220°
2026-04-30 14:31 -25.54515 -47.67865 36061 ft 405 kts 221°
2026-04-30 14:31 -25.61622 -47.72997 36062 ft 406 kts 221°
2026-04-30 14:32 -25.68701 -47.78115 36063 ft 404 kts 221°
2026-04-30 14:33 -25.73381 -47.81499 35771 ft 396 kts 221°
2026-04-30 14:33 -25.77997 -47.84840 34927 ft 399 kts 221°
2026-04-30 14:33 -25.80339 -47.86550 34641 ft 411 kts 221°
2026-04-30 14:34 -25.82768 -47.88327 34349 ft 419 kts 221°
2026-04-30 14:34 -25.85196 -47.90095 34062 ft 421 kts 221°
2026-04-30 14:34 -25.87672 -47.91891 33772 ft 420 kts 221°
2026-04-30 14:34 -25.90126 -47.93670 33484 ft 422 kts 221°
2026-04-30 14:35 -25.94207 -47.96632 33012 ft 424 kts 220°
2026-04-30 14:35 -25.97530 -47.99045 32678 ft 425 kts 220°
2026-04-30 14:35 -26.00001 -48.00819 32390 ft 426 kts 219°
2026-04-30 14:36 -26.02554 -48.02526 31798 ft 429 kts 216°
2026-04-30 14:36 -26.05225 -48.03966 31191 ft 433 kts 211°
2026-04-30 14:36 -26.08047 -48.05196 30575 ft 434 kts 208°
2026-04-30 14:36 -26.10873 -48.06284 29972 ft 433 kts 206°
2026-04-30 14:37 -26.13749 -48.07330 29350 ft 431 kts 205°
2026-04-30 14:37 -26.16598 -48.08352 28720 ft 429 kts 205°
2026-04-30 14:37 -26.19443 -48.09378 28101 ft 427 kts 205°
2026-04-30 14:37 -26.22263 -48.10404 27478 ft 425 kts 205°
2026-04-30 14:38 -26.25049 -48.11429 26859 ft 422 kts 204°
2026-04-30 14:38 -26.27836 -48.12463 26240 ft 420 kts 204°
2026-04-30 14:38 -26.30603 -48.13496 25628 ft 417 kts 204°
2026-04-30 14:38 -26.33309 -48.14510 25019 ft 415 kts 203°
2026-04-30 14:39 -26.36043 -48.15536 24400 ft 412 kts 203°
2026-04-30 14:39 -26.38755 -48.16556 23794 ft 410 kts 202°
2026-04-30 14:39 -26.41461 -48.17576 23181 ft 407 kts 202°
2026-04-30 14:40 -26.46769 -48.19579 21971 ft 403 kts 201°
2026-04-30 14:40 -26.49459 -48.20594 21356 ft 401 kts 201°
2026-04-30 14:40 -26.52061 -48.21578 20747 ft 399 kts 201°
2026-04-30 14:40 -26.54683 -48.22567 20147 ft 397 kts 201°
2026-04-30 14:41 -26.57316 -48.23562 19541 ft 395 kts 201°
2026-04-30 14:41 -26.59882 -48.24532 18935 ft 392 kts 201°
2026-04-30 14:41 -26.62476 -48.25515 18315 ft 390 kts 201°
2026-04-30 14:41 -26.65039 -48.26486 17709 ft 387 kts 200°
2026-04-30 14:42 -26.67573 -48.27446 17129 ft 384 kts 200°
2026-04-30 14:42 -26.70072 -48.28394 16541 ft 381 kts 200°
2026-04-30 14:42 -26.72584 -48.29346 15941 ft 379 kts 200°
2026-04-30 14:42 -26.75076 -48.30291 15358 ft 377 kts 200°
2026-04-30 14:43 -26.77548 -48.31229 14767 ft 375 kts 201°
2026-04-30 14:43 -26.80021 -48.32169 14150 ft 373 kts 201°
2026-04-30 14:43 -26.82475 -48.33101 13568 ft 371 kts 201°
2026-04-30 14:43 -26.84890 -48.34020 12994 ft 369 kts 200°
2026-04-30 14:44 -26.87342 -48.34952 12394 ft 367 kts 200°
2026-04-30 14:44 -26.89754 -48.35870 11815 ft 365 kts 201°
2026-04-30 14:44 -26.92125 -48.36805 11281 ft 361 kts 204°
2026-04-30 14:44 -26.94339 -48.37973 11120 ft 345 kts 209°
2026-04-30 14:45 -26.96395 -48.39240 11101 ft 328 kts 211°
2026-04-30 14:45 -26.98363 -48.40523 11092 ft 326 kts 212°
2026-04-30 14:45 -27.00320 -48.41816 10972 ft 330 kts 212°
2026-04-30 14:45 -27.02307 -48.43117 10734 ft 327 kts 212°
2026-04-30 14:46 -27.04281 -48.44395 10485 ft 325 kts 212°
2026-04-30 14:46 -27.06247 -48.45662 10248 ft 325 kts 211°
2026-04-30 14:46 -27.08206 -48.46921 10013 ft 322 kts 211°
2026-04-30 14:46 -27.09480 -48.47738 9848 ft 316 kts 211°
2026-04-30 14:47 -27.12009 -48.49358 9539 ft 305 kts 211°
2026-04-30 14:47 -27.13842 -48.50532 9285 ft 297 kts 211°
2026-04-30 14:47 -27.15614 -48.51668 9040 ft 290 kts 211°
2026-04-30 14:47 -27.17356 -48.52788 8805 ft 284 kts 211°
2026-04-30 14:48 -27.19032 -48.53867 8577 ft 278 kts 212°
2026-04-30 14:48 -27.20707 -48.54944 8329 ft 273 kts 211°
2026-04-30 14:48 -27.22397 -48.55856 8091 ft 272 kts 203°
2026-04-30 14:48 -27.24211 -48.56546 7884 ft 273 kts 199°
2026-04-30 14:49 -27.26034 -48.57141 7653 ft 273 kts 197°
2026-04-30 14:49 -27.27865 -48.57741 7423 ft 272 kts 198°
2026-04-30 14:49 -27.29682 -48.58366 7178 ft 271 kts 199°
2026-04-30 14:49 -27.31478 -48.59002 6940 ft 271 kts 199°
2026-04-30 14:50 -27.35066 -48.60278 6452 ft 270 kts 199°
2026-04-30 14:50 -27.36848 -48.60911 6222 ft 269 kts 199°
2026-04-30 14:51 -27.40431 -48.62180 5739 ft 268 kts 199°
2026-04-30 14:51 -27.42212 -48.62812 5494 ft 267 kts 198°
2026-04-30 14:51 -27.45723 -48.64056 5031 ft 263 kts 198°
2026-04-30 14:52 -27.47463 -48.64674 4997 ft 252 kts 198°
2026-04-30 14:52 -27.50482 -48.66025 4882 ft 220 kts 211°
2026-04-30 14:52 -27.51787 -48.66939 4447 ft 225 kts 213°
2026-04-30 14:53 -27.54475 -48.68835 3705 ft 226 kts 211°
2026-04-30 14:53 -27.55839 -48.69683 3375 ft 224 kts 203°
2026-04-30 14:54 -27.58644 -48.69377 2969 ft 200 kts 138°
2026-04-30 14:54 -27.60149 -48.66897 2404 ft 180 kts 120°
2026-04-30 14:55 -27.61384 -48.64656 1966 ft 160 kts 121°
2026-04-30 14:55 -27.61947 -48.63617 1763 ft 151 kts 121°
2026-04-30 14:55 -27.63003 -48.61677 1376 ft 144 kts 122°
2026-04-30 14:56 -27.64054 -48.59746 983 ft 144 kts 122°
2026-04-30 14:56 -27.65115 -48.57806 598 ft 144 kts 122°
2026-04-30 14:57 -27.65628 -48.56835 423 ft 147 kts 125°
2026-04-30 14:57 -27.66688 -48.54903 44 ft 142 kts 123°
2026-04-30 14:58 -27.67335 -48.53700 32 ft 45 kts 122°
2026-04-30 14:58 -27.67495 -48.53408 32 ft 42 kts 122°
2026-04-30 14:58 -27.67697 -48.53075 31 ft 9 kts 177°
2026-04-30 14:59 -27.67799 -48.53138 31 ft 7 kts 235°
2026-04-30 15:00 -27.67697 -48.53396 31 ft 30 kts 301°
2026-04-30 15:00 -27.67484 -48.53789 32 ft 28 kts 301°
2026-04-30 15:01 -27.67288 -48.54152 33 ft 25 kts 301°
2026-04-30 15:01 -27.67230 -48.54257 33 ft 12 kts 302°
2026-04-30 15:01 -27.67289 -48.54374 33 ft 7 kts 203°
2026-04-30 15:02 -27.67336 -48.54384 33 ft 4 kts 207°
2026-04-30 15:02 -27.67355 -48.54396 33 ft 0 kts 210°